This is the latest recevied weather packets stored in our database for station/object K7FLA. If no packets are shown the sender has not sent any weather packets the latest 10 day(s).
| Time | Temp. | Humidity | Pressure | Rain* | Wind** | Luminosity | Snow |
|---|---|---|---|---|---|---|---|
| 1788367827 | 26.67° C | 17% | 1097.7 hPa | 0 mm | - | 538 W/m² | - |
| 1788367522 | 26.67° C | 16% | 1097.8 hPa | 0 mm | - | 523 W/m² | - |
| 1788367221 | 26.67° C | 18% | 1097.7 hPa | 0 mm | - | 505 W/m² | - |
| 1788366917 | 26.67° C | 18% | 1097.8 hPa | 0 mm | - | 489 W/m² | - |
| 1788366615 | 26.67° C | 18% | 1097.7 hPa | 0 mm | - | 470 W/m² | - |
| 1788366309 | 26.67° C | 18% | 1097.7 hPa | 0 mm | - | 453 W/m² | - |
| 1788366004 | 26.67° C | 18% | 1097.6 hPa | 0 mm | - | 437 W/m² | - |
| 1788365699 | 27.22° C | 18% | 1097.7 hPa | 0 mm | - | 421 W/m² | - |
| 1788365395 | 26.67° C | 19% | 1097.7 hPa | 0 mm | - | 402 W/m² | - |
| 1788365091 | 26.67° C | 18% | 1097.6 hPa | 0 mm | - | 385 W/m² | - |
| 1788364788 | 26.67° C | 21% | 1097.6 hPa | 0 mm | - | 369 W/m² | - |
| 1788364484 | 26.67° C | 19% | 1097.5 hPa | 0 mm | - | 353 W/m² | - |
| 1788364178 | 26.67° C | 19% | 1097.4 hPa | 0 mm | - | 336 W/m² | - |
| 1788363873 | 26.11° C | 20% | 1097.5 hPa | 0 mm | - | 319 W/m² | - |
| 1788363573 | 26.11° C | 21% | 1097.7 hPa | 0 mm | - | 304 W/m² | - |
| 1788363271 | 25.56° C | 20% | 1097.5 hPa | 0 mm | - | 287 W/m² | - |
| 1788362967 | 25.56° C | 20% | 1097.7 hPa | 0 mm | - | 268 W/m² | - |
| 1788362663 | 25.56° C | 21% | 1097.5 hPa | 0 mm | - | 252 W/m² | - |
| 1788362359 | 25.56° C | 20% | 1097.6 hPa | 0 mm | - | 236 W/m² | - |
| 1788362055 | 25° C | 21% | 1097.5 hPa | 0 mm | - | 218 W/m² | - |
| 1788361748 | 25° C | 21% | 1097.6 hPa | 0 mm | - | 202 W/m² | - |
| 1788361445 | 24.44° C | 21% | 1097.5 hPa | 0 mm | - | 187 W/m² | - |
| 1788361144 | 23.89° C | 22% | 1097.7 hPa | 0 mm | - | 170 W/m² | - |
| 1788360841 | 23.33° C | 27% | 1097.4 hPa | 0 mm | - | 156 W/m² | - |
| 1788360535 | 22.78° C | 27% | 1097.6 hPa | 0 mm | - | 142 W/m² | - |
* Rain latest hour (hover to see other rain measurements)
** Current wind speed in m/s (hover to see current wind gust speed)